Tracking 18823 objects as of 20-October-2017
HD Live streaming from Space Station
objects crossing your sky now

COSMOS 252 DEB

Track COSMOS 252 DEB now!
10-day predictions


NORAD ID: 3559
Int'l Code: 1968-097M
Perigee: 524.8 km
Apogee: 1,336.4 km
Inclination: 62.3 °
Period: 103.5 minutes
Semi major axis: 7301 km
RCS: 0.1149 m2 (medium)
Launch date: November 1, 1968
Source: Commonwealth of Independent States (former USSR) (CIS)
Launch site: TYURATAM MISSILE AND SPACE COMPLEX (TTMTR)

Note: This is SATELLITE DEBRIS
aabbcc
Your satellite tracking list
Your tracking list is empty





NASA's NSSDC Master Catalog

Two Line Element Set (TLE):
1  3559U 68097M   17292.32603067 +.00000106 +00000-0 +57684-4 0  9991
2  3559 062.2951 264.6355 0555785 179.9300 180.1922 13.91483021401914
Source of the keplerian elements: AFSPC